Weather Roundup
Issued by NWS Springfield, MO

Home | Current Version | Previous Version | Text Only | Print | Product List | Glossary On
Versions: 1 2 3 4 5 6 7 8 9 10 11 12 13 14 15 16 17 18 19 20 21 22 23 24 25 26 27 28 29 30 31 32 33 34 35 36 37 38 39 40 41 42 43 44 45 46 47 48 49 50
000
NZUS99 KSGF 050359
HRRSGF

HOURLY WEATHER
NATIONAL WEATHER SERVICE SPRINGFIELD MO
1100 PM CDT SAT JUL 04 2015

......SGF CWA......

CITY           SKY/WX    TMP DP  RH WIND       PRES   REMARKS
SPRINGFIELD    PTCLDY    73  68  84 SE7       30.01R HAZE
JOPLIN         CLEAR     74  67  78 E6        29.99R HAZE
WEST PLAINS    MOCLDY    72  68  87 CALM      30.06R
ROLLA          CLEAR     69  66  90 SE7       30.03R
OSAGE BEACH    MOCLDY    72  64  78 CALM      30.02R

......SURROUNDING SGF CWA......

CITY           SKY/WX    TMP DP  RH WIND       PRES   REMARKS
CHANUTE        CLEAR     75  68  78 E8        29.98R
PARSONS        CLEAR     76  69  79 CALM      29.98R
COFFEYVILLE    CLEAR     76  68  76 SE6       29.96R
EMPORIA        CLEAR     73  65  75 SE9       29.97R
SILOAM SPRINGS PTCLDY    73  66  78 SE3         N/A
HARRISON AR    CLEAR     72  70  93 SE6       30.03R FOG
NEAR YELLVILLE   N/A     73  70  88 CALM      30.00R

......KANSAS AND MISSOURI......

CITY           SKY/WX    TMP DP  RH WIND       PRES   REMARKS
KANSAS CTY INT CLEAR     71  64  78 SE6       29.99R
DOWNTOWN KC    CLEAR     76  64  66 SE5       29.98R HAZE
COLUMBIA       PTCLDY    72  65  78 SE6       30.02R
SEDALIA        PTCLDY    72  65  78 SE6       30.02R
ST JOSEPH      CLEAR     72  64  76 SE7       29.98R
ST LOUIS       PTCLDY    73  63  70 E6        30.03R HAZE
SPIRIT OF STL  CLEAR     69  66  90 CALM      30.01R FOG
KIRKSVILLE     PTCLDY    65  61  87 S3        30.02R
WICHITA        PTCLDY    80  65  59 SE10      29.94R HAZE
TOPEKA         CLEAR     72  65  78 E5        29.97R HAZE
OLATHE         CLEAR     71  63  75 SE3       29.99R HAZE

......TENNESSEE......

CITY           SKY/WX    TMP DP  RH WIND       PRES   REMARKS
MEMPHIS        MOCLDY    75  70  84 S5        30.02S
NASHVILLE      LGT RAIN  70  69  97 CALM      30.02F

......ARKANSAS.......

CITY           SKY/WX    TMP DP  RH WIND       PRES   REMARKS
FAYETTEVILLE   PTCLDY    70  70 100 CALM      30.01R FOG
FT SMITH       CLEAR     79  70  74 SW5       29.96R
LITTLE ROCK    MOCLDY    75  70  84 S9        30.02R

......OKLAHOMA.......

CITY           SKY/WX    TMP DP  RH WIND       PRES   REMARKS
TULSA          PTCLDY    78  70  76 SE7       29.95R
PONCA CITY     PTCLDY    80  67  64 SE9       29.95R
MCALESTER      MOCLDY    72  68  87 S6        29.99R
OKLAHOMA CITY  CLEAR     73  70  90 SE7       29.96R

......IOWA............

CITY           SKY/WX    TMP DP  RH WIND       PRES   REMARKS
DES MOINES     PTCLDY    70  60  70 S7        29.98R
QUAD CITIES    CLEAR     67  61  81 CALM      30.01S

......ILLINOIS........

CITY           SKY/WX    TMP DP  RH WIND       PRES   REMARKS
QUINCY         CLEAR     69  65  86 SE5       30.02R
CHICAGO        PTCLDY    67  57  70 SE6       30.03R SMOKE



USA.gov is the U.S. government's official web portal to all federal, state and local government web resources and services.